User: anonymous
Location: Unspecified
(0.0000°N, 0.0000°E)
Time: 04:23:03
(UTC+00:00)
Language:

N. Korean satellite - Orbit

View from above orbital plane
View from above orbital plane
View from above satellite
View from above satellite

Ground track
Ground track

The orbit data is extracted from the following two-line orbital elements,

1 39026U 12072A   14292.76344739  .00008975  00000-0  46020-3 0  1663
2 39026 097.3152 327.7986 0050794 357.6614 002.4373 15.15636245102233
Epoch (UTC): 19 October 2014 18:19:21
Eccentricity: 0.0050794
inclination: 97.3152°
perigee height: 484 km
apogee height: 554 km
right ascension of ascending node: 327.7986°
argument of perigee: 357.6614°
revolutions per day: 15.15636245
mean anomaly at epoch: 2.4373°
orbit number at epoch: 10223

The dashed part of the orbit path shows where the satellite is in the earth's shadow,  

DLR